www.pogodaiklimat.ru

Погода и климат >> Архив погоды >> Индия >> Churu


ПОГОДА в Churu

  • Прогноз погоды в Churu
  • Монитор погоды в Churu
  • Климат города

АРХИВ ПОГОДЫ в Churu

Время (UTC), дата Ветер
(напр.,м/с)
 
Видим.   Явления Облачность Т
(С)
Тd
(С)
f
(%)
Тe
(С)
Тes
(С)
Комфортность P
(гПа)
Po
(гПа)
Тmin
(С)
Tmax
(С)
R
(мм)
R24
(мм)
S
(см)
18 13.05 СВ 4 2000 м мгла ясно +30.0 +15.4 41 +33 +33 душно 1004.1 1004.0
21 13.05 ЮВ 1 2000 м мгла ясно +26.4 +16.0 53 +30 +30 душно 1003.0 1003.0
00 14.05 Ю 1 2000 м мгла ясно +26.0 +15.1 51 +29 +29 душно 1003.5 1004.0
03 14.05 Ю 2 2000 м мгла ясно +31.6 +13.3 33 +33 +41 жарко 1004.8 1005.0 +25.0 +43.7
06 14.05 З 1 2000 м мгла ясно +40.4 +14.4 22 +41 +65 опасность
перегрева
1003.7 1004.0
09 14.05 СЗ 2 2000 м мгла ясно +42.6 +9.7 14 +41 +59 опасность
перегрева
1001.6 1002.0
12 14.05 СЗ 2 2000 м мгла ясно +41.4 +10.9 16 +40 +43 очень
жарко
1010.0 1010.0 +43.7
15 14.05 штиль 0 2000 м мгла ясно +37.0 +14.6 26 +38 +38 душно 1001.6 1002.0
18 14.05 ЮВ 1 2000 м мгла ясно +34.0 +16.8 36 +37 +37 очень
душно
1003.2 1003.0
21 14.05 штиль 0 2000 м мгла ясно +30.6 +16.2 42 +34 +34 очень
душно
1002.3 1002.0
00 15.05 штиль 0 2000 м мгла ясно +29.0 +16.1 46 +32 +32 душно 1002.2 1002.0
03 15.05 ЮЗ 1 2000 м мгла ясно +34.0 +15.5 33 +36 +45 душно 1003.1 1003.0 +27.8 +43.7
06 15.05 З 1 2000 м мгла ясно +42.0 +14.1 20 +43 +67 опасность
перегрева
1001.7 1002.0
09 15.05 ЮЗ 2 2000 м мгла ясно +43.4 +13.0 17 +43 +62 опасность
перегрева
999.2 999.0
12 15.05 С 2 2000 м мгла ясно +42.0 +12.0 17 +41 +44 опасность
перегрева
997.2 997.0 +44.5
15 15.05 В 1 2000 м мгла ясно +38.0 +14.8 25 +39 +39 очень
душно
998.7 999.0
18 15.05 штиль 0 2000 м мгла ясно +34.8 +15.4 31 +37 +37 очень
душно
1000.6 1001.0
21 15.05 штиль 0 2000 м мгла ясно +32.6 +15.7 36 +35 +35 душно 1000.0 1000.0
00 16.05 В 1 2000 м мгла ясно +28.4 +16.6 49 +32 +32 душно 1002.1 1002.0
03 16.05 ЮВ 2 2000 м мгла ясно +30.6 +14.6 38 +33 +40 душно 1004.7 1005.0 +26.5 +44.5
06 16.05 С 2 2000 м мгла 4/4 1200 м
[Sc]
+38.4 +9.2 17 +37 +50 очень
жарко
1003.2 1003.0
09 16.05 СВ 2 2000 м мгла 4/4 1050 м
[Cu Sc]
+41.6 +7.3 13 +49 +60 опасность
перегрева
1001.1 1001.0
12 16.05 штиль 0 2000 м мгла 3/3 1200 м
[Sc]
+40.6 +9.3 15 +39 +42 очень
жарко
999.6 1000.0 +43.3
15 16.05 штиль 0 2000 м мгла ясно +37.0 +15.5 28 +39 +39 очень
душно
1000.8 1001.0
18 16.05 штиль 0 2000 м мгла ясно +33.4 +15.9 35 +36 +36 очень
душно
1002.2 1002.0
21 16.05 штиль 0 2000 м мгла ясно +31.0 +16.8 43 +35 +35 очень
душно
1002.0 1002.0
00 17.05 штиль 0 2000 м мгла ясно +29.4 +15.9 44 +32 +32 душно 1002.3 1002.0
03 17.05 ЮВ 2 2000 м мгла ясно +33.4 +14.6 32 +35 +43 душно 1003.4 1003.0 +27.6 +43.4
06 17.05 СВ 2 2000 м мгла ясно +39.8 +12.9 20 +39 +62 опасность
солнечного
удара
1002.3 1002.0
09 17.05 ЮЗ 2 2000 м гроза, ливневой дождь 8/8 1050 м
[Cb calv]
+42.0 +16.1 22 +43 +47 опасность
перегрева
1000.1 1000.0 0.0
12 17.05 СВ 2 4000 м {гроза, дождь} 8/8 1200 м
[Sc]
+32.8 +17.6 40 +37 +37 очень
душно
1002.4 1002.0 +43.3 3
15 17.05 СВ 2 4000 м 3/3 1200 м
[Sc]
+29.6 +16.5 45 +33 +33 душно 1001.4 1001.0 3
18 17.05 С 1 4000 м 3/3 1200 м
[Sc]
+27.2 +18.1 58 +32 +32 очень
душно
1002.8 1003.0 3
21 17.05 штиль 0 4000 м 3/3 1200 м
[Sc]
+25.4 +18.5 66 +30 +30 душно 1002.3 1002.0 3
00 18.05 штиль 0 4000 м 4/4 1200 м
[Sc]
+24.6 +17.2 63 +28 +28 душно 1003.0 1003.0 3
03 18.05 штиль 0 4000 м {гроза, дождь} 6/3 1200 м
[Sc Ac trans]
+27.6 +17.8 55 +32 +37 очень
душно
1004.1 1004.0 +23.3 +43.3 4
06 18.05 4000 м н/о +36.0 +14.5 28 +37 +52 опасность
солнечного
удара
1003.7 1004.0
09 18.05 СВ 1 4000 м 5/5 1200 м
[Sc]
+40.0 +12.2 19 +39 +49 очень
жарко
1001.1 1001.0
12 18.05 СЗ 1 2000 м мгла ясно +40.4 +12.9 20 +40 +44 очень
жарко
1000.8 1001.0 +41.6
15 18.05 штиль 0 2000 м мгла ясно +35.4 +15.5 31 +37 +37 очень
душно
998.8 999.0
18 18.05 штиль 0 2000 м мгла ясно +32.6 +13.4 31 +34 +34 очень
жарко
1001.2 1001.0
21 18.05 штиль 0 2000 м мгла ясно +30.4 +13.4 35 +32 +32 жарко 1000.9 1001.0
00 19.05 СВ 1 2000 м мгла 4/4 1200 м
[Sc]
+28.2 +15.1 45 +31 +31 душно 1001.2 1001.0
03 19.05 штиль 0 2000 м мгла 9/3 1200 м
[Sc Ac trans]
+33.6 +17.8 39 +37 +41 очень
душно
1002.9 1003.0 +26.8 +41.6
06 19.05 С 1 2000 м мгла ясно +40.4 +16.7 25 +42 +68 опасность
перегрева
1002.0 1002.0
09 19.05 СЗ 1 2000 м мгла 4/4 1200 м
[Sc]
+43.4 +11.9 16 +43 +56 опасность
перегрева
999.1 999.0
12 19.05 ЮВ 2 2000 м мгла {дождь} 9/9 1200 м
[Sc]
+38.0 +11.3 20 +37 +37 очень
жарко
999.5 1000.0 +44.0 0.0
15 19.05 штиль 0 2000 м мгла 3/3 1200 м
[Sc]
+34.4 +17.3 36 +38 +38 очень
душно
1002.7 1003.0 0.0
18 19.05 СЗ 1 2000 м мгла 3/3 1200 м
[Sc]
+33.0 +11.7 27 +33 +33 жарко 1003.3 1003.0 0.0
21 19.05 СВ 1 2000 м мгла 3/3 1200 м
[Sc]
+30.4 +12.9 34 +31 +31 жарко 1003.3 1003.0 0.0
00 20.05 штиль 0 2000 м мгла 8/8 1200 м
[Sc]
+28.0 +14.8 44 +30 +30 жарко 1003.5 1004.0 0.0
03 20.05 штиль 0 2000 м мгла 4/4 1200 м
[Sc]
+32.0 +13.9 33 +33 +39 жарко 1005.1 1005.0 +26.2 +44.0
06 20.05 С 1 2000 м мгла 4/4 1200 м
[Sc]
+40.0 +8.1 15 +38 +54 опасность
солнечного
удара
1004.2 1004.0
09 20.05 С 1 2000 м мгла 4/4 1200 м
[Sc]
+42.0 +4.9 11 +39 +51 опасность
солнечного
удара
1002.9 1003.0
12 20.05 СЗ 1 2000 м мгла ясно +41.2 +8.1 14 +39 +43 очень
жарко
1001.2 1001.0 +43.0

 

Местоположение метеостанции Churu (Rajasthan, Индия): широта 28.25 долгота 74.92 высота над уровнем моря 291 м.

В архиве по умолчанию представлена погода в Churu за последнюю неделю. Архивные данные за месяц целиком и за предыдущие месяцы, начиная с января 2011 года, Вы можете получить, выбрав интересующий диапазон дат из раскрывающегося списка и нажав кнопку "Ввод!".


*Определитесь, кто Вы:
робот инопланетянин человек

Внимание! Время в таблицах - всемирное. Для получения местного времени необходимо прибавить поправку, которая в Churu равна 5.5 ч.

Смотрите также архив погоды в соседних городах и на ближайших метеорологических станциях:

Погода в Pilani (Rajasthan, Индия) (65 км)
Погода в Hissar (Haryana, Индия) (129 км)
Погода в Bikaner (Rajasthan, Индия) (161 км)
Погода в Rohtak (Haryana, Индия) (175 км)
Погода в Jaipur (Rajasthan, Индия) (181 км)
Погода в Ajmer (Rajasthan, Индия) (202 км)
Погода в Sri Ganganagar (Rajasthan, Индия) (212 км)
Погода в New Delhi Aya Nagar (Delhi, Индия) (218 км)
Погода в New Delhi Airport (Delhi, Индия) (218 км)
Погода в New Delhi (Delhi, Индия) (226 км)

Пояснения к столбцам:

Ветер - указаны скорость ветра в м/с - средняя за 10 мин, порывы в срок и между сроками (в фигурных скобках) и направление, откуда дует ветер: С - северный, СВ - северо-восточный, В - восточный, ЮВ - юго-восточный, Ю - южный, ЮЗ - юго-западный, З - западный, СЗ - северо-западный.
Видимость - горизонтальная дальность видимости в метрах или километрах. При видимости от 1 до 10 км при отсутствии осадков обычно наблюдается дымка, при ухудшении видимости до 1 км и менее - туман. В сухую погоду видимость может ухудшаться дымом, пылью или мглою.
Явления - указаны атмосферные явления, наблюдавшиеся в срок или в последний час перед сроком; фигурными скобками обозначены явления, наблюдавшиеся между сроками (за 1-3 часа до срока); квадратными скобками обозначены град или гололедные отложения с указанием их диаметра в мм.
Облачность - указаны через наклонную черту общая и нижняя облачность в баллах и высота нижней границы облаков в метрах; квадратными скобками обозначены формы облаков: Ci - перистые, Cs - перисто-слоистые, Cc - перисто-кучевые, Ac - высококучевые, As - высокослоистые, Sc - слоисто-кучевые, Ns - слоисто-дождевые, Cu - кучевые, Cb - кучево-дождевые. Подробнее классификацию облаков см. в Атласе облаков (PDF).
T - Температура воздуха - температура, измеренная на высоте 2 м над землей.
Td - Температура точки росы - температура, при понижении до которой содержащийся в воздухе водяной пар достигнет насыщения.
f - Относительная влажность воздуха - влажноcть воздуха, измеренная на высоте 2 м над землей.
Te - Эффективная температура - температура, которую ощущает одетый по сезону человек в тени. Характеристика душности погоды. При расчете учитывается влияние влажности воздуха и скорости ветра на теплоощущения человека.
Tes - Эффективная температура на солнце - температура, которую ощущает человек, с поправкой на солнечный нагрев. Характеристика знойности погоды. Зависит от высоты солнца над горизонтом, облачности и скорости ветра. Ночью, в пасмурную погоду, а также при ветре 12 м/с и более поправка равна нулю.
P - Атмосферное давление - приведенное к уровню моря атмосферное давление.
Po - Атмосферное давление - измеренное на уровне метеостанции атмосферное давление.
Tmin - Минимальная температура - минимум температуры воздуха на высоте 2 м над землей.
Tmax - Максимальная температура - максимум температуры воздуха на высоте 2 м над землей.
R - Количество осадков - Количество выпавших осадков за период времени, мм. При наведении курсора мыши на число - период времени, за который выпало указанное количество осадков.
R24 - Количество осадков - Количество выпавших осадков за 24 часа, мм.
S - Снежный покров - Высота снежного покрова, см. При наведении курсора мыши на число - состояние снежного покрова и степень покрытия местности в баллах.